Welcome to the New NWS' Forecast!
Most changes are behind the scenes, but click here for differences you might notice.

Regional Weather Roundup (RWR)

Issued by Gray - Portland, ME (GYX)

                            
000
ASUS41 KGYX 162310
RWRGYX
WEATHER ROUNDUP FOR MAINE AND NEW HAMPSHIRE
NATIONAL WEATHER SERVICE GRAY ME
700 PM EDT TUE OCT 16 2018

MEZ002-005-006-010-012-015-018-020-021-024-026-027-029-170000-
MAINE
  
CITY           SKY/WX    TMP DP  RH WIND       PRES   REMARKS
PORTLAND       FAIR      50  31  48 W7        29.95R                  
SANFORD        FAIR      38  34  85 W3        29.96R                  
BAR HARBOR     FAIR      46  30  53 VRB3      29.93R                  
WISCASSET      FAIR      45  31  58 CALM      29.95R                  
ROCKLAND       FAIR      41  34  76 CALM      29.93R                  
FRYEBURG       FAIR      38  31  76 CALM      29.95R                  
LEWISTONAUBURN FAIR      44  29  55 CALM      29.94R                  
AUGUSTA        FAIR      46  27  47 N7        29.94R                  
WATERVILLE     FAIR      44  28  53 VRB3      29.93R                  
BANGOR         FAIR      44  29  55 W6        29.92R                  
GREENVILLE       N/A     37  25  61 VRB7      29.85R                  
MILLINOCKET    MOCLDY    43  26  51 W9        29.89R                  
HOULTON        FAIR      40  27  59 W6        29.83R                  
PRESQUE ISLE   NOT AVBL                                               
FRENCHVILLE    MOCLDY    40  25  55 W14G21    29.76R                  
CARIBOU        FAIR      39  25  57 VRB6      29.79R                  
$$

NHZ002-005-008-009-011-012-014-170000-
NEW HAMPSHIRE
  
CITY           SKY/WX    TMP DP  RH WIND       PRES   REMARKS
PORTSMOUTH     PTCLDY    49  33  54 SW3       29.96R                  
ROCHESTER      FAIR      45  35  68 CALM      29.95R                  
NASHUA         FAIR      46  36  68 VRB3      30.00R                  
MANCHESTER     FAIR      50  34  54 SW6       29.97R                  
CONCORD        FAIR      48  33  56 SW6       29.97R                  
LACONIA        FAIR      43  33  68 CALM      29.96R                  
PLYMOUTH       FAIR      41  31  69 CALM      29.95R                  
BERLIN         FAIR      36  30  79 CALM      29.92S                  
WHITEFIELD     FAIR      35  31  85 CALM      29.93S                  
JAFFREY        FAIR      46  33  60 W5        29.99R                  
KEENE          FAIR      44  35  70 VRB5      30.00R                  
LEBANON        FAIR      47  31  53 S8        29.95R                  
MT WASHINGTON  FOG       19  19 100 W45         N/A  VSB 0   WCI  -3  
$$

VTZ005-007-008-170000-
VERMONT
  
CITY           SKY/WX    TMP DP  RH WIND       PRES   REMARKS
ST JOHNSBURY     N/A     42  32  67 MISG      29.92S                  
MONTPELIER     FAIR      43  31  62 W6        29.97R                  
BURLINGTON     FAIR      48  31  51 SW5       29.95R                  
$$

MAZ007-012-024-CTZ003-RIZ002-NYZ038-NYZ072-170000-
SOUTHERN NEW ENGLAND AND NY
  
CITY           SKY/WX    TMP DP  RH WIND       PRES   REMARKS
BOSTON         FAIR      54  31  41 W10       30.00R                  
WORCESTER      FAIR      45  32  60 W6        30.00R                  
NANTUCKET      FAIR      51  38  60 W9        30.02S                  
PROVIDENCE     MOCLDY    49  37  63 SW6       30.03R                  
HARTFORD       FAIR      49  38  65 SW7       30.03R                  
ALBANY         FAIR      46  33  60 W5        30.02R                  
NEW YORK CITY  MOCLDY    55  32  41 SW12      30.06S                  
$$

ANZ081-ANZ082-ANZ150-NHZ014-MEZ023>029-170000-
COASTAL MARINE OBSERVATIONS
  
STATION/POSITION TIME  TEMP    WIND        PRES    WAVE
                       AIR SEA DIR/SP/G            HT/PER
                 (UTC) (F)     (DEG/KT/KT) (MB)    (FT/S)
MOUNT DESERT ROC 2300   53     270/ 17/ 18 1012.9R
MATINICUS ROCK   2200   53     280/ 15/ 17 1012.5R
ISLE OF SHOALS   2200   55     250/ 13/ 14 1013.9R
JEFFREYS LEDGE   2206      57                N/A     3/ 4
$$

.............KEY..............
   WCI - WIND CHILL
   TC  - TEMPERATURE IN CELSIUS
   VSB - VISIBILITY IN MILES
   HX  - HEAT INDEX
   FAIR- INDICATES FEW OR NO CLOUDS BELOW 12,000 FT, WITH NO 
         SIGNIFICANT WEATHER AND/OR OBSTRUCTIONS TO VISIBILITY.